Weather History for Louisa, VA

Change the Weather History Date:

Tuesday, December 3, 2013

  Actual Average (KCHO) Record (KCHO)
Temperature  
Mean Temperature 46 °F 41 °F  
Max Temperature 60 °F 51 °F 72 °F (1970)
Min Temperature 33 °F 32 °F 12 °F (1976)
Degree Days  
Heating Degree Days 18 24  
Month to date heating degree days 71  
Since 1 July heating degree days 962  
Cooling Degree Days 0 0  
Month to date cooling degree days 0  
Year to date cooling degree days 1035  
Moisture  
Dew Point 38 °F    
Average Humidity 80    
Maximum Humidity 100    
Minimum Humidity 45    
Precipitation  
Precipitation 0.00 in 0.13 in 0.05 in (2005)
Month to date precipitation 0.38  
Year to date precipitation 39.94  
Sea Level Pressure  
Sea Level Pressure 29.92 in    
Wind  
Wind Speed 1 mph (SSW)    
Max Wind Speed 5 mph    
Max Gust Speed -    
Visibility 9 miles    
Events      
T = Trace of Precipitation, MM = Missing Value Source: NWS Daily Summary

Daily Weather History Graph

Daily Weather History Graph

Search for Another Location

Airport:

Trip Planner

Search our weather history database for the weather conditions in past years. The results will help you decide how hot, cold, wet, or windy it might be!

Date:

Astronomy

Dec. 03, 2013 Rise Set
Actual Time 7:11 AM EST 4:52 PM EST
Civil Twilight 6:42 AM EST 5:21 PM EST
Nautical Twilight 6:09 AM EST 5:54 PM EST
Astronomical Twilight 5:37 AM EST 6:25 PM EST
Moon 7:38 AM EST (12/3) 5:53 PM EST (12/3)
Length of Visible Light 10h 39m
Length of Day
9h 41m
New Moon, 1% of the Moon is Illuminated
Dec 3
New Moon
Dec 9
First Quarter
Dec 17
Full
Dec 25
Last Quarter
Jan 1
New

Hourly Weather History & Observations

Time (EST) Temp. Windchill Dew Point Humidity Pressure Visibility Wind Dir Wind Speed Gust Speed Precip Events Conditions
12:15 AM 37.4 °F - 35.6 °F 93% 29.86 in 7.0 mi Calm Calm - N/A   Overcast
12:35 AM 37.4 °F - 35.6 °F 93% 29.86 in 10.0 mi Calm Calm - N/A   Overcast
12:55 AM 41.0 °F - 37.4 °F 87% 29.86 in 10.0 mi Calm Calm - N/A   Overcast
1:15 AM 39.2 °F - 37.4 °F 93% 29.86 in 10.0 mi Calm Calm - N/A   Overcast
1:35 AM 39.2 °F - 37.4 °F 93% 29.87 in 10.0 mi Calm Calm - N/A   Overcast
1:55 AM 39.2 °F 37.0 °F 37.4 °F 93% 29.87 in 10.0 mi WNW 3.5 mph - N/A   Overcast
2:15 AM 39.2 °F - 37.4 °F 93% 29.87 in 10.0 mi Calm Calm - N/A   Overcast
2:35 AM 39.2 °F - 37.4 °F 93% 29.87 in 10.0 mi Calm Calm - N/A   Overcast
2:55 AM 39.2 °F - 37.4 °F 93% 29.88 in 10.0 mi Calm Calm - N/A   Overcast
3:15 AM 39.2 °F - 35.6 °F 87% 29.88 in 10.0 mi Calm Calm - N/A   Overcast
3:35 AM 39.2 °F - 35.6 °F 87% 29.88 in 10.0 mi Calm Calm - N/A   Overcast
3:55 AM 37.4 °F - 35.6 °F 93% 29.88 in 7.0 mi Calm Calm - N/A   Mostly Cloudy
4:15 AM 37.4 °F - 35.6 °F 93% 29.87 in 7.0 mi Calm Calm - N/A   Mostly Cloudy
4:35 AM 35.6 °F - 35.6 °F 100% 29.87 in 7.0 mi Calm Calm - N/A   Mostly Cloudy
4:55 AM 37.4 °F - 35.6 °F 93% 29.87 in 7.0 mi Calm Calm - N/A   Overcast
5:15 AM 37.4 °F - 35.6 °F 93% 29.87 in 7.0 mi Calm Calm - N/A   Mostly Cloudy
5:35 AM 35.6 °F - 33.8 °F 93% 29.87 in 4.0 mi Calm Calm - N/A   Mostly Cloudy
5:55 AM 35.6 °F - 33.8 °F 93% 29.88 in 4.0 mi Calm Calm - N/A   Scattered Clouds
6:15 AM 35.6 °F - 33.8 °F 93% 29.89 in 4.0 mi Calm Calm - N/A   Clear
6:35 AM 35.6 °F - 33.8 °F 93% 29.90 in 4.0 mi Calm Calm - N/A   Scattered Clouds
6:55 AM 33.8 °F - 33.8 °F 100% 29.91 in 4.0 mi Calm Calm - N/A   Scattered Clouds
7:15 AM 33.8 °F - 33.8 °F 100% 29.92 in 4.0 mi Calm Calm - N/A   Mostly Cloudy
7:35 AM 35.6 °F - 33.8 °F 93% 29.93 in 3.0 mi Calm Calm - N/A   Overcast
7:55 AM 37.4 °F - 37.4 °F 100% 29.93 in 3.0 mi Calm Calm - N/A   Mostly Cloudy
8:15 AM 39.2 °F - 37.4 °F 93% 29.93 in 4.0 mi Calm Calm - N/A   Overcast
8:35 AM 42.8 °F - 39.2 °F 87% 29.92 in 7.0 mi Calm Calm - N/A   Overcast
8:55 AM 44.6 °F - 39.2 °F 81% 29.93 in 10.0 mi Calm Calm - N/A   Overcast
9:15 AM 44.6 °F - 39.2 °F 81% 29.93 in 10.0 mi Calm Calm - N/A   Overcast
9:35 AM 44.6 °F - 39.2 °F 81% 29.94 in 10.0 mi Calm Calm - N/A   Overcast
9:55 AM 46.4 °F - 39.2 °F 76% 29.94 in 10.0 mi Calm Calm - N/A   Overcast
10:15 AM 46.4 °F - 39.2 °F 76% 29.94 in 10.0 mi Calm Calm - N/A   Overcast
10:35 AM 48.2 °F - 41.0 °F 76% 29.94 in 10.0 mi Calm Calm - N/A   Overcast
10:55 AM 51.8 °F - 41.0 °F 67% 29.94 in 10.0 mi WSW 3.5 mph - N/A   Mostly Cloudy
11:15 AM 51.8 °F - 41.0 °F 67% 29.93 in 10.0 mi SW 3.5 mph - N/A   Scattered Clouds
11:35 AM 53.6 °F - 39.2 °F 58% 29.93 in 7.0 mi SW 4.6 mph - N/A   Scattered Clouds
11:55 AM 55.4 °F - 39.2 °F 54% 29.92 in 5.0 mi SW 4.6 mph - N/A   Haze
12:15 PM 55.4 °F - 39.2 °F 54% 29.92 in 10.0 mi South 4.6 mph - N/A   Mostly Cloudy
12:35 PM 55.4 °F - 39.2 °F 54% 29.91 in 10.0 mi Calm Calm - N/A   Overcast
12:55 PM 55.4 °F - 41.0 °F 58% 29.91 in 10.0 mi WSW 3.5 mph - N/A   Overcast
1:15 PM 57.2 °F - 41.0 °F 55% 29.91 in 10.0 mi Calm Calm - N/A   Overcast
1:35 PM 57.2 °F - 39.2 °F 51% 29.90 in 10.0 mi Calm Calm - N/A   Overcast
1:55 PM 59.0 °F - 39.2 °F 48% 29.90 in 10.0 mi SW 4.6 mph - N/A   Overcast
2:15 PM 60.8 °F - 39.2 °F 45% 29.89 in 10.0 mi WSW 4.6 mph - N/A   Mostly Cloudy
2:35 PM 59.0 °F - 39.2 °F 48% 29.90 in - North - - N/A   Unknown
2:55 PM 57.2 °F - 39.2 °F 51% 29.91 in 10.0 mi Calm Calm - N/A   Clear
3:15 PM 55.4 °F - 39.2 °F 54% 29.92 in 10.0 mi South 3.5 mph - N/A   Mostly Cloudy
3:35 PM 55.4 °F - 39.2 °F 54% 29.93 in 10.0 mi SSW 3.5 mph - N/A   Overcast
3:55 PM 55.4 °F - 39.2 °F 54% 29.93 in 10.0 mi Calm Calm - N/A   Overcast
4:15 PM 55.4 °F - 41.0 °F 58% 29.93 in 10.0 mi Calm Calm - N/A   Scattered Clouds
4:35 PM 53.6 °F - 41.0 °F 62% 29.93 in 10.0 mi Calm Calm - N/A   Clear
4:55 PM 46.4 °F - 42.8 °F 87% 29.93 in 10.0 mi Calm Calm - N/A   Clear
5:15 PM 44.6 °F 43.1 °F 39.2 °F 81% 29.94 in 10.0 mi South 3.5 mph - N/A   Clear
5:35 PM 44.6 °F 43.1 °F 39.2 °F 81% 29.94 in 10.0 mi South 3.5 mph - N/A   Clear
5:55 PM 42.8 °F - 39.2 °F 87% 29.93 in 10.0 mi Calm Calm - N/A   Clear
6:15 PM 41.0 °F 39.0 °F 39.2 °F 93% 29.93 in 10.0 mi SE 3.5 mph - N/A   Clear
6:35 PM 44.6 °F 42.2 °F 39.2 °F 81% 29.93 in 10.0 mi SSE 4.6 mph - N/A   Clear
6:55 PM 44.6 °F 42.2 °F 39.2 °F 81% 29.94 in 10.0 mi SSE 4.6 mph - N/A   Clear
7:15 PM 42.8 °F 41.1 °F 39.2 °F 87% 29.95 in 10.0 mi South 3.5 mph - N/A   Clear
7:35 PM 42.8 °F 41.1 °F 37.4 °F 81% 29.95 in 10.0 mi South 3.5 mph - N/A   Clear
7:55 PM 41.0 °F 39.0 °F 37.4 °F 87% 29.95 in 10.0 mi SSE 3.5 mph - N/A   Clear
8:15 PM 41.0 °F 39.0 °F 39.2 °F 93% 29.95 in 10.0 mi South 3.5 mph - N/A   Clear
8:35 PM 41.0 °F - 37.4 °F 87% 29.95 in 10.0 mi Calm Calm - N/A   Mostly Cloudy
8:55 PM 42.8 °F - 39.2 °F 87% 29.95 in 10.0 mi Calm Calm - N/A   Scattered Clouds
9:15 PM 41.0 °F - 39.2 °F 93% 29.96 in 10.0 mi Calm Calm - N/A   Scattered Clouds
9:35 PM 41.0 °F - 37.4 °F 87% 29.96 in 10.0 mi Calm Calm - N/A   Clear
9:55 PM 42.8 °F - 39.2 °F 87% 29.96 in 10.0 mi Calm Calm - N/A   Clear
10:15 PM 42.8 °F - 39.2 °F 87% 29.95 in 10.0 mi Calm Calm - N/A   Clear
10:35 PM 42.8 °F - 39.2 °F 87% 29.97 in 10.0 mi Calm Calm - N/A   Mostly Cloudy
10:55 PM 42.8 °F - 39.2 °F 87% 29.97 in 10.0 mi Calm Calm - N/A   Scattered Clouds
11:15 PM 46.4 °F 45.2 °F 41.0 °F 81% 29.98 in 10.0 mi South 3.5 mph - N/A   Clear
11:35 PM 46.4 °F - 41.0 °F 81% 29.98 in 10.0 mi Calm Calm - N/A   Clear
11:55 PM 46.4 °F 45.2 °F 41.0 °F 81% 29.99 in 10.0 mi South 3.5 mph - N/A   Mostly Cloudy